When you browse on this site, cookies collect data to enhance your experience and personalize the content and advertising you see.
Visit our Privacy Policy to learn more. By continuing to use the site, you agree to this use of cookies and data.
  • In Latvia
  • List of Countries
  • For 7 days
  • Water Temperature
  • Weather Map
  • Weather Widgets
  • user-avatar
    Login

    Hourly Weather Usole

    Today, 17 August, Saturday

    Time Temperature Precipitation Wind Pressure Humidity
    00:00 +24°C° 0 mm 3 mps 752 mmHg 56%
    01:00 +22°C° 0 mm 3 mps 752 mmHg 57%
    02:00 +22°C° 0 mm 3 mps 752 mmHg 58%
    03:00 +23°C° 0 mm 2 mps 752 mmHg 57%
    04:00 +23°C° 0 mm 2 mps 752 mmHg 58%
    05:00 +23°C° 0 mm 2 mps 752 mmHg 59%
    06:00 +23°C° 0 mm 2 mps 752 mmHg 60%
    07:00 +24°C° 0 mm 2 mps 752 mmHg 57%
    08:00 +26°C° 0 mm 2 mps 753 mmHg 53%
    09:00 +27°C° 0 mm 2 mps 753 mmHg 50%
    10:00 +28°C° 0 mm 2 mps 753 mmHg 47%
    11:00 +29°C° 0 mm 2 mps 753 mmHg 44%
    12:00 +30°C° 0 mm 2 mps 753 mmHg 40%
    13:00 +31°C° 0 mm 2 mps 753 mmHg 39%
    14:00 +31°C° 0 mm 2 mps 753 mmHg 39%
    15:00 +33°C° 0 mm 3 mps 753 mmHg 38%
    16:00 +30°C° 0 mm 2 mps 753 mmHg 42%
    17:00 +29°C° 0 mm 2 mps 753 mmHg 45%
    18:00 +27°C° 0 mm 1 mps 753 mmHg 49%
    19:00 +27°C° 0 mm 2 mps 753 mmHg 48%
    20:00 +26°C° 0 mm 2 mps 753 mmHg 47%
    21:00 +25°C° 0 mm 2 mps 752 mmHg 46%
    22:00 +24°C° 0 mm 3 mps 753 mmHg 46%
    23:00 +24°C° 0 mm 3 mps 753 mmHg 47%

    Tomorrow, 18 August, Sunday

    Time Temperature Precipitation Wind Pressure Humidity
    00:00 +22°C° 0 mm 3 mps 753 mmHg 47%
    01:00 +21°C° 0 mm 3 mps 753 mmHg 48%
    02:00 +21°C° 0 mm 3 mps 753 mmHg 50%
    03:00 +21°C° 0 mm 3 mps 753 mmHg 51%
    04:00 +21°C° 0 mm 3 mps 753 mmHg 52%
    05:00 +21°C° 0 mm 3 mps 753 mmHg 53%
    06:00 +21°C° 0 mm 3 mps 753 mmHg 54%
    07:00 +24°C° 0 mm 3 mps 753 mmHg 52%
    08:00 +25°C° 0 mm 4 mps 753 mmHg 49%
    09:00 +27°C° 0 mm 4 mps 753 mmHg 47%
    10:00 +27°C° 0 mm 4 mps 754 mmHg 46%
    11:00 +28°C° 0 mm 3 mps 754 mmHg 46%
    12:00 +28°C° 0 mm 3 mps 754 mmHg 45%
    13:00 +29°C° 0 mm 3 mps 754 mmHg 42%
    14:00 +30°C° 0 mm 2 mps 754 mmHg 40%
    15:00 +31°C° 0 mm 2 mps 754 mmHg 37%
    16:00 +30°C° 0 mm 2 mps 754 mmHg 40%
    17:00 +29°C° 0 mm 2 mps 754 mmHg 43%
    18:00 +28°C° 0 mm 2 mps 754 mmHg 45%
    19:00 +27°C° 0 mm 2 mps 754 mmHg 45%
    20:00 +26°C° 0 mm 3 mps 754 mmHg 45%
    21:00 +25°C° 0 mm 3 mps 755 mmHg 45%
    22:00 +25°C° 0 mm 3 mps 755 mmHg 45%
    23:00 +25°C° 0 mm 3 mps 755 mmHg 45%

    Day after tomorrow, 19 August, Monday

    Time Temperature Precipitation Wind Pressure Humidity
    00:00 +25°C° 0 mm 3 mps 755 mmHg 46%
    01:00 +25°C° 0 mm 3 mps 755 mmHg 46%
    02:00 +24°C° 0 mm 3 mps 755 mmHg 47%
    03:00 +24°C° 0 mm 3 mps 755 mmHg 48%
    04:00 +24°C° 0 mm 3 mps 755 mmHg 50%
    05:00 +24°C° 0 mm 2 mps 755 mmHg 52%
    06:00 +23°C° 0 mm 2 mps 755 mmHg 54%
    07:00 +25°C° 0 mm 2 mps 755 mmHg 52%
    08:00 +26°C° 0 mm 2 mps 756 mmHg 50%
    09:00 +27°C° 0 mm 2 mps 756 mmHg 47%
    10:00 +29°C° 0 mm 3 mps 756 mmHg 44%
    11:00 +30°C° 0 mm 3 mps 756 mmHg 40%
    12:00 +33°C° 0 mm 4 mps 756 mmHg 37%
    13:00 +34°C° 0 mm 4 mps 756 mmHg 35%
    14:00 +34°C° 0 mm 4 mps 756 mmHg 34%
    15:00 +35°C° 0 mm 4 mps 756 mmHg 32%
    16:00 +33°C° 0 mm 3 mps 756 mmHg 39%
    17:00 +30°C° 0 mm 2 mps 756 mmHg 45%
    18:00 +29°C° 0 mm 2 mps 756 mmHg 52%
    19:00 +27°C° 0 mm 2 mps 756 mmHg 54%
    20:00 +26°C° 0 mm 2 mps 756 mmHg 56%
    21:00 +25°C° 0 mm 1 mps 756 mmHg 58%
    22:00 +24°C° 0 mm 2 mps 756 mmHg 63%
    23:00 +22°C° 0 mm 3 mps 756 mmHg 68%

    20 August, Tuesday

    Time Temperature Precipitation Wind Pressure Humidity
    00:00 +21°C° 0 mm 3 mps 757 mmHg 73%
    01:00 +21°C° 0 mm 3 mps 757 mmHg 76%
    02:00 +21°C° 0 mm 3 mps 757 mmHg 79%
    03:00 +20°C° 0 mm 3 mps 757 mmHg 81%
    04:00 +21°C° 0 mm 3 mps 757 mmHg 83%
    05:00 +21°C° 0 mm 3 mps 757 mmHg 84%
    06:00 +21°C° 0 mm 3 mps 757 mmHg 85%
    07:00 +22°C° 0 mm 4 mps 758 mmHg 80%
    08:00 +23°C° 0 mm 4 mps 758 mmHg 74%
    09:00 +26°C° 0 mm 4 mps 758 mmHg 69%
    10:00 +26°C° 0 mm 4 mps 758 mmHg 64%
    11:00 +27°C° 0 mm 4 mps 758 mmHg 59%
    12:00 +28°C° 0 mm 4 mps 758 mmHg 54%
    13:00 +28°C° 0 mm 4 mps 758 mmHg 53%
    14:00 +28°C° 0 mm 4 mps 758 mmHg 52%
    15:00 +28°C° 0 mm 4 mps 757 mmHg 50%
    16:00 +26°C° 0 mm 3 mps 757 mmHg 55%
    17:00 +25°C° 0 mm 3 mps 757 mmHg 60%
    18:00 +24°C° 0 mm 3 mps 757 mmHg 65%
    19:00 +22°C° 0 mm 3 mps 758 mmHg 69%
    20:00 +21°C° 0 mm 2 mps 758 mmHg 74%
    21:00 +20°C° 0 mm 2 mps 758 mmHg 78%
    22:00 +19°C° 0 mm 2 mps 758 mmHg 81%
    23:00 +19°C° 0 mm 2 mps 758 mmHg 84%

    21 August, Wednesday

    Time Temperature Precipitation Wind Pressure Humidity
    00:00 +19°C° 0 mm 2 mps 758 mmHg 86%
    01:00 +18°C° 0 mm 2 mps 758 mmHg 88%
    02:00 +18°C° 0 mm 2 mps 758 mmHg 89%
    03:00 +18°C° 0 mm 3 mps 758 mmHg 91%
    04:00 +18°C° 0 mm 3 mps 758 mmHg 89%
    05:00 +19°C° 0 mm 3 mps 758 mmHg 88%
    06:00 +19°C° 0 mm 3 mps 758 mmHg 86%
    07:00 +20°C° 0 mm 3 mps 758 mmHg 81%
    08:00 +22°C° 0 mm 4 mps 758 mmHg 75%
    09:00 +23°C° 0 mm 4 mps 759 mmHg 69%
    10:00 +25°C° 0 mm 4 mps 758 mmHg 67%
    11:00 +26°C° 0 mm 4 mps 758 mmHg 64%
    12:00 +27°C° 0 mm 4 mps 758 mmHg 62%
    13:00 +27°C° 0 mm 5 mps 758 mmHg 61%
    14:00 +27°C° 0 mm 5 mps 758 mmHg 60%
    15:00 +27°C° 0 mm 5 mps 758 mmHg 59%
    16:00 +26°C° 0 mm 4 mps 758 mmHg 64%
    17:00 +26°C° 0 mm 4 mps 758 mmHg 68%
    18:00 +25°C° 0 mm 3 mps 758 mmHg 73%
    19:00 +22°C° 0 mm 3 mps 758 mmHg 78%
    20:00 +21°C° 0 mm 3 mps 758 mmHg 84%
    21:00 +20°C° 0 mm 3 mps 758 mmHg 90%
    22:00 +19°C° 0 mm 2 mps 759 mmHg 90%
    23:00 +19°C° 0 mm 2 mps 759 mmHg 91%

    22 August, Thursday

    Time Temperature Precipitation Wind Pressure Humidity
    00:00 +19°C° 0 mm 2 mps 759 mmHg 92%
    01:00 +18°C° 0 mm 2 mps 759 mmHg 93%
    02:00 +18°C° 0 mm 2 mps 759 mmHg 94%
    03:00 +18°C° 0 mm 2 mps 759 mmHg 94%
    04:00 +18°C° 0 mm 2 mps 759 mmHg 93%
    05:00 +19°C° 0 mm 2 mps 759 mmHg 92%
    06:00 +19°C° 0 mm 2 mps 759 mmHg 91%
    07:00 +21°C° 0 mm 2 mps 759 mmHg 84%
    08:00 +23°C° 0 mm 2 mps 759 mmHg 77%
    09:00 +25°C° 0 mm 3 mps 759 mmHg 70%
    10:00 +26°C° 0 mm 2 mps 759 mmHg 65%
    11:00 +27°C° 0 mm 2 mps 759 mmHg 61%
    12:00 +28°C° 0 mm 2 mps 758 mmHg 56%
    13:00 +28°C° 0 mm 2 mps 758 mmHg 54%
    14:00 +28°C° 0 mm 2 mps 758 mmHg 52%
    15:00 +29°C° 0 mm 1 mps 758 mmHg 51%
    16:00 +28°C° 0 mm 2 mps 758 mmHg 56%
    17:00 +27°C° 0 mm 2 mps 757 mmHg 62%
    18:00 +26°C° 0 mm 2 mps 757 mmHg 67%
    19:00 +24°C° 0 mm 2 mps 757 mmHg 70%
    20:00 +23°C° 0 mm 2 mps 757 mmHg 72%
    21:00 +22°C° 0 mm 1 mps 758 mmHg 75%
    22:00 +22°C° 0 mm 1 mps 758 mmHg 76%
    23:00 +21°C° 0 mm 1 mps 758 mmHg 78%
    Show more